Regional Weather Roundup
Issued by NWS Bismarck, ND

Home | Current Version | Previous Version | Text Only | Print | Product List | Glossary On
Versions: 1 2 3 4 5 6 7 8 9 10 11 12 13 14 15 16 17 18 19 20 21 22 23 24 25 26 27 28 29 30 31 32 33 34 35 36 37 38 39 40 41 42 43 44 45 46 47 48 49 50
000
ASUS43 KBIS 260302
RWRBIS

NWR BROADCAST TEXT
NATIONAL WEATHER SERVICE BISMARCK ND
1000 PM CDT WED MAY 25 2016

NOTE: "FAIR" INDICATES FEW OR NO CLOUDS BELOW 12,000 FEET WITH NO
SIGNIFICANT WEATHER AND/OR OBSTRUCTIONS TO VISIBILITY.


CITY           SKY/WX    TMP DP  RH WIND       PRES   REMARKS
WILLISTON      CLEAR     49  46  90 N5        29.81F
MINOT          CLOUDY    59  55  87 S5        29.75S
MINOT AFB      CLOUDY    58  55  89 S6        29.74S
BISMARCK       CLOUDY    59  53  80 NW12      29.78S
DICKINSON      CLEAR     46  41  82 W5        29.81S
GARRISON         N/A     57  52  83 NW14      29.77S
HETTINGER ARPT CLEAR     47  40  76 NW5       29.85R
JAMESTOWN      RAIN      59  57  93 S8        29.75S
CARRINGTON     FAIR      57  55  94 S6        29.76S
HAZEN          CLOUDY    55  50  82 W5        29.80S
MANDAN         MOCLDY    55  50  82 W12G17    29.79R
OAKES            N/A    N/A N/A N/A MISG        N/A
STANLEY        CLOUDY    54  54 100 NW13G18   29.79S
$$

CITY           SKY/WX    TMP DP  RH WIND       PRES   REMARKS
GRAND FORKS    CLOUDY    59  57  93 W10       29.69R
GRAND FORKS AF CLOUDY    58  58 100 NW10      29.70R
DEVILS LAKE    CLOUDY    59  55  87 E3        29.75F
FARGO          CLEAR     60  56  86 SW6       29.73S
CAVALIER       CLOUDY    57  57 100 N10       29.70S FOG
GRAFTON        CLOUDY    59  59 100 NW10G22   29.69S
GWINNER        CLOUDY    64  61  88 NE6       29.74S
LANGDON        CLOUDY    55  55 100 NE10      29.75S
$$

CITY           SKY/WX    TMP DP  RH WIND       PRES   REMARKS
ABERDEEN       CLOUDY    60  51  72 SW9       29.74R
MOBRIDGE       CLEAR     58  49  72 NW7       29.78R
BUFFALO          N/A     58  45  62 NW9       29.80S
RAPID CITY     PTCLDY    50  48  93 NW6       29.90R
GLASGOW        CLEAR     55  44  66 N9        29.82S
SIDNEY         CLEAR     52  47  83 NW5       29.82S
WOLF POINT     CLOUDY    58  49  72 NE3       29.83R
GLENDIVE       PTCLDY    57  45  62 E3        29.86S
MILES CITY     PTCLDY    55  49  80 SW3       29.85S
BAKER          CLOUDY    57  44  62 CALM      29.86R
$$

CITY           SKY/WX    TMP DP  RH WIND       PRES   REMARKS
BILLINGS       CLOUDY    52  44  74 N17G23    29.90R
GREAT FALLS    CLOUDY    55  45  68 NW12      29.91R
$$





USA.gov is the U.S. government's official web portal to all federal, state and local government web resources and services.